User: anonymous   Login
Location: St. Louis
(38.6270°N, 90.1994°W)
Time: 22:08:48
(UTC-06:00)
Language:

XW-2F - Orbit

View from above orbital plane
View from above orbital plane
View from above satellite
View from above satellite

Ground track
Ground track

The orbit data is extracted from the following two-line orbital elements,

1 40910U 15049M   22024.83167147  .00004437  00000-0  20662-3 0  9997
2 40910  97.4756  32.8605 0015388 114.8037 323.2183 15.20335563351348
Epoch (UTC): 24 January 2022 19:57:36
Eccentricity: 0.0015388
inclination: 97.4756°
perigee height: 494 km
apogee height: 515 km
right ascension of ascending node: 32.8605°
argument of perigee: 114.8037°
revolutions per day: 15.20335563
mean anomaly at epoch: 323.2183°
orbit number at epoch: 35134

The dashed part of the orbit path shows where the satellite is in the earth's shadow,  

DLR